This demonstration page uses our WeatherBlox Daily Observations layout. Learn more.

Left ArrowRight Arrow

Hourly Observations for May 4, 2018

Temp ( °F °C ) Dew Point ( °F °C ) Humidity (%) Winds ( mph kmh ) Pressure ( in mb ) Visibility ( mi km ) Precip ( " mm )
12:56 am 00:56 Clear 49 9.4 46 7.8 90 90 NW 12 19 30.05 1018 10 16 0.00 0.00
1:56 am 01:56 Clear 47 8.3 44 6.7 90 90 WNW 9 15 30.06 1018 10 16 0.00 0.00
2:56 am 02:56 Mostly Clear 46 7.8 44 6.7 93 93 WNW 8 13 30.07 1018 10 16 0.00 0.00
3:56 am 03:56 Clear 47 8.3 43 6.1 86 86 W 6 9 30.08 1019 10 16 0.00 0.00
4:56 am 04:56 Clear 49 9.4 44 6.7 83 83 W 10 17 30.09 1019 10 16 0.00 0.00
5:56 am 05:56 Clear 48 8.9 44 6.7 86 86 WNW 10 17 30.09 1019 10 16 0.00 0.00
6:56 am 06:56 Sunny 47 8.3 43 6.1 86 86 NW 10 17 30.11 1020 10 16 0.00 0.00
7:56 am 07:56 Sunny 50 10 44 6.7 80 80 WNW 12 19 30.13 1020 10 16 0.00 0.00
8:56 am 08:56 Sunny 56 13.3 47 8.3 72 72 NW 9 15 30.14 1021 10 16 0.00 0.00
9:56 am 09:56 Sunny 63 17.2 47 8.3 56 56 NNW 12 19 30.14 1021 10 16 0.00 0.00
10:56 am 10:56 Sunny 67 19.4 48 8.9 51 51 NW 10 17 30.13 1020 10 16 0.00 0.00
11:56 am 11:56 Sunny 70 21.1 47 8.3 44 44 NW 6 9 30.14 1021 10 16 0.00 0.00
12:56 pm 12:56 Sunny 73 22.8 44 6.7 35 35 WNW 10 17 30.14 1021 10 16 0.00 0.00
1:56 pm 13:56 Partly Cloudy 75 23.9 40 4.4 28 28 WNW 10 17 30.14 1021 10 16 0.00 0.00
2:56 pm 14:56 Partly Cloudy 75 23.9 40 4.4 28 28 NW 5 7 30.13 1020 10 16 0.00 0.00
3:56 pm 15:56 Mostly Sunny 76 24.4 39 3.9 26 26 N 7 11 30.11 1020 10 16 0.00 0.00
4:56 pm 16:56 Mostly Sunny 76 24.4 37 2.8 24 24 WNW 9 15 30.10 1019 10 16 0.00 0.00
5:56 pm 17:56 Sunny 76 24.4 39 3.9 26 26 W 6 9 30.10 1019 10 16 0.00 0.00
6:56 pm 18:56 Sunny 75 23.9 39 3.9 27 27 Calm 30.10 1019 10 16 0.00 0.00
7:56 pm 19:56 Sunny 74 23.3 42 5.6 32 32 Calm 30.09 1019 10 16 0.00 0.00
8:56 pm 20:56 Clear 68 20 44 6.7 42 42 SE 5 7 30.10 1019 10 16 0.00 0.00
9:56 pm 21:56 Clear 65 18.3 44 6.7 47 47 ESE 5 7 30.10 1019 10 16 0.00 0.00
10:56 pm 22:56 Clear 61 16.1 44 6.7 54 54 SSW 8 13 30.10 1019 10 16 0.00 0.00
11:56 pm 23:56 Clear 57 13.9 42 5.6 58 58 SSW 7 11 30.09 1019 10 16 0.00 0.00

Powered by AerisWeather